Location: Grisols
(45.0093°N, 3.1167°E)
Time: 17:23:52
(UTC+00:00)

MOS 1 - Pass Details

Date: 21 October 2019
Orbit: 879 x 891 km, 99.2° (Epoch: 18 November)

Event Time Altitude Azimuth Distance (km) Brightness Sun altitude
Exits shadow 19:20:45 39° 177° (S) 1,290 5.0 -26.7°
Maximum altitude 19:22:56 77° 256° (WSW) 908 4.3 -27.1°
Drops below altitude 10° 19:28:36 10° 343° (NNW) 2,546 7.0 -28.1°
Sets 19:31:00 0° 345° (NNW) 3,488 7.8 -28.5°
